Weather Roundup
Issued by NWS

Home | Current Version | Previous Version | Text Only | Print | Product List | Glossary On
Versions: 1 2 3 4 5 6 7 8 9 10 11 12 13 14 15 16 17 18 19 20 21 22 23 24 25 26 27 28 29 30 31 32 33 34 35 36 37 38 39 40 41 42 43 44 45 46 47 48 49 50
000
NZUS93 KARX 060359
HRRWXR

CURRENT HOURLY OBSERVATIONS ACROSS
MUCH OF THE UPPER MISSISSIPPI VALLEY
NATIONAL WEATHER SERVICE LA CROSSE WI
1000 PM CST THU MAR 05 2015


...SOUTHEAST MINNESOTA...


CITY           SKY/WX    TMP DP  RH WIND       PRES   REMARKS
ROCHESTER      MOCLDY     1  -5  75 S14       30.37F WCI -17
ROCHESTER/MAYO FAIR       5  -3  69 S13       30.38F WCI -12
WINONA         PTCLDY     5  -2  72 SE5       30.46F WCI  -4
AUSTIN         PTCLDY     3  -2  78 S12       30.37F WCI -13
ALBERT LEA     FAIR       7   1  78 S9        30.35F WCI  -7
DODGE CENTER   PTCLDY     5   0  78 S17       30.34F WCI -14
PRESTON        MOCLDY     2  -4  76 S13       30.39F WCI -16
OWATONNA       CLEAR      9   1  72 S15       30.34F WCI  -8
FARIBAULT      CLEAR      9   1  72 S10G16    30.34F WCI  -6
$$

...ELSEWHERE IN MINNESOTA...


CITY           SKY/WX    TMP DP  RH WIND       PRES   REMARKS
MINNEAPOLIS    FAIR      10   1  67 S9        30.34F WCI  -3
INTNL FALLS    PTCLDY    11  -4  51 SW15G24   30.04F WCI  -5
DULUTH         CLEAR      6  -5  60 SW14      30.19F WCI -11
RED WING       PTCLDY     7  -2  66 SE5       30.39F WCI  -2
REDWOOD FALLS  CLEAR     13   5  70 S14       30.25F WCI  -2
MANKATO        CLEAR     10   1  67 S12       30.32F WCI  -4
FAIRMONT       CLEAR     12   3  67 S15       30.29F WCI  -4
$$

...SOUTHWEST WISCONSIN...


CITY           SKY/WX    TMP DP  RH WIND       PRES   REMARKS
LA CROSSE      PTCLDY     7  -3  64 S7        30.47S WCI  -5
PRAIRIE DU CHI PTCLDY     1  -7  68 CALM      30.52R
BOSCOBEL       PTCLDY     3  -6  66 SW3       30.51S
LONE ROCK      NOT AVBL
PLATTEVILLE    PTCLDY     2  -5  71 S6        30.48S WCI  -9
FORT MC COY    PTCLDY     5  -5  63 SW3       30.46S
VIROQUA        FAIR       1  -6  72 SW6       30.42R WCI -10
WIS DELLS      NOT AVBL
$$

...ELSEWHERE IN WISCONSIN...


CITY           SKY/WX    TMP DP  RH WIND       PRES   REMARKS
MILWAUKEE      PTCLDY     7  -6  55 W9        30.51R WCI  -7
MADISON        PTCLDY     6  -6  57 SW6       30.48R WCI  -4
GREEN BAY      PTCLDY     4  -7  60 SW6       30.43S WCI  -7
EAU CLAIRE     NOT AVBL
BLACK RVR FLS  FAIR       1  -8  67 SW5       30.44S WCI  -9
MEDFORD        CLEAR      1 -11  59 SW3       30.33S
WAUSAU         CLEAR      2 -11  54 SW5       30.36S WCI  -8
WIS RAPIDS     MOCLDY     6  -8  52 SW8       30.43R WCI  -7
MARSHFIELD     PTCLDY     2  -9  60 W8        30.38R WCI -12
RICE LAKE      PTCLDY     1  -7  67 S7        30.36S WCI -11
$$

...NORTHEAST IOWA...


CITY           SKY/WX    TMP DP  RH WIND       PRES   REMARKS
DECORAH        PTCLDY     1  -6  71 S7        30.44S WCI -11
MASON CITY     PTCLDY     2  -3  80 S12       30.40F WCI -15
CHARLES CITY   PTCLDY     1  -6  71 S10       30.44F WCI -14
OELWEIN        PTCLDY    -2  -8  78 S7        30.48S WCI -16
$$

...ELSEWHERE IN IOWA...


CITY           SKY/WX    TMP DP  RH WIND       PRES   REMARKS
DES MOINES     PTCLDY    16   4  59 SE9       30.45F WCI   4
IOWA CITY      MOCLDY     4  -2  76 SE5       30.54F WCI  -5
FORT DODGE     CLEAR     14   1  57 SE8       30.38F WCI   3
$$

...NORTHERN ILLINOIS...


CITY           SKY/WX    TMP DP  RH WIND       PRES   REMARKS
CHICAGO-OHARE  PTCLDY     8  -2  63 W9        30.54R WCI  -5
CHICAGO-MIDWAY PTCLDY    12  -1  56 W10       30.55S WCI  -1
MOLINE         PTCLDY     3  -4  72 SE3       30.55F
ROCKFORD       MOCLDY     2  -6  69 SW5       30.54S WCI  -8
PEORIA         MOCLDY     7  -3  64 CALM      30.59S
$$

NOTE: "FAIR" INDICATES FEW OR NO CLOUDS BELOW 12,000 FEET WITH NO
SIGNIFICANT WEATHER AND/OR OBSTRUCTIONS TO VISIBILITY. WIND
SPEEDS ARE IN MILES-PER-HOUR.



USA.gov is the U.S. government's official web portal to all federal, state and local government web resources and services.